TimeCST,TemperatureF,Dew PointF,Humidity,Sea Level PressureIn,VisibilityMPH,Wind Direction,Wind SpeedMPH,Gust SpeedMPH,PrecipitationIn,Events,Conditions,WindDirDegrees,DateUTC
12:15 AM,60.8,58.5,92,29.98,7.0,SE,8.1,-,N/A,Rain,Light Rain,140,2013-01-01 06:15:00
12:35 AM,60.8,58.6,93,29.97,5.0,SE,5.8,-,0.01,,Overcast,140,2013-01-01 06:35:00
12:55 AM,60.8,59.0,94,29.97,5.0,SSE,5.8,-,0.01,,Overcast,150,2013-01-01 06:55:00
1:15 AM,61.0,59.0,93,29.97,5.0,SSE,4.6,-,N/A,Rain,Light Rain,150,2013-01-01 07:15:00
1:35 AM,61.3,59.4,93,29.96,5.0,SSE,4.6,-,N/A,,Overcast,160,2013-01-01 07:35:00
1:55 AM,61.9,60.1,94,29.96,5.0,SSE,4.6,-,N/A,,Overcast,160,2013-01-01 07:55:00
2:15 AM,62.6,60.8,94,29.95,5.0,SSE,4.6,-,N/A,,Overcast,160,2013-01-01 08:15:00
2:35 AM,63.7,61.9,94,29.95,5.0,SSE,5.8,-,N/A,,Overcast,160,2013-01-01 08:35:00
2:55 AM,64.4,62.2,93,29.94,5.0,South,6.9,-,N/A,,Overcast,170,2013-01-01 08:55:00
3:15 AM,65.3,62.8,92,29.94,7.0,South,8.1,-,N/A,Rain,Light Rain,170,2013-01-01 09:15:00
3:35 AM,66.2,63.5,91,29.94,7.0,South,12.7,-,N/A,Rain,Light Rain,180,2013-01-01 09:35:00
3:55 AM,65.8,63.5,92,29.93,7.0,South,12.7,-,N/A,Rain,Rain,180,2013-01-01 09:55:00
4:15 AM,65.8,63.5,92,29.93,5.0,South,11.5,-,N/A,Rain,Light Rain,180,2013-01-01 10:15:00
4:35 AM,66.0,63.9,93,29.92,4.0,South,10.4,-,0.02,Rain,Light Rain,180,2013-01-01 10:35:00
4:55 AM,66.0,63.7,92,29.92,5.0,SSW,9.2,-,0.03,Rain,Light Rain,200,2013-01-01 10:55:00
5:15 AM,66.4,64.0,92,29.92,3.0,South,10.4,-,0.07,Rain,Heavy Rain,190,2013-01-01 11:15:00
5:35 AM,66.9,64.4,92,29.90,3.0,South,8.1,-,0.28,Rain,Heavy Rain,170,2013-01-01 11:35:00
5:55 AM,66.2,64.0,93,29.93,2.0,WSW,9.2,-,0.47,Rain,Heavy Rain,240,2013-01-01 11:55:00
6:00 AM,66.2,64.4,94,29.93,2.0,WSW,11.5,20.7,N/A,Rain-Thunderstorm,Thunderstorms and Rain,240,2013-01-01 12:00:00
6:53 AM,59.0,57.2,94,29.97,3.0,North,5.8,-,N/A,Rain-Thunderstorm,Thunderstorms and Rain,360,2013-01-01 12:53:00
8:55 AM,57.2,55.4,94,29.99,5.0,North,11.5,17.3,N/A,Rain,Light Rain,360,2013-01-01 14:55:00
9:50 AM,57.2,55.4,94,30.01,6.0,NNE,11.5,-,N/A,Rain,Light Rain,20,2013-01-01 15:50:00
10:53 AM,55.4,53.6,94,30.03,4.0,North,11.5,18.4,N/A,Rain,Light Rain,350,2013-01-01 16:53:00
11:50 AM,53.6,51.8,94,30.03,4.0,North,12.7,21.9,N/A,Rain,Rain,350,2013-01-01 17:50:00
12:55 PM,53.6,51.8,94,30.02,5.0,NNW,12.7,19.6,N/A,Rain,Light Rain,340,2013-01-01 18:55:00
1:58 PM,53.6,51.8,94,30.01,7.0,North,10.4,-,N/A,Rain,Light Rain,350,2013-01-01 19:58:00
2:50 PM,53.6,51.8,94,30.02,7.0,North,13.8,20.7,N/A,Rain,Light Rain,350,2013-01-01 20:50:00
3:50 PM,53.6,50.0,88,30.03,10.0,North,11.5,-,N/A,Rain,Light Rain,10,2013-01-01 21:50:00
4:55 PM,53.6,50.0,88,30.08,10.0,NNW,5.8,-,N/A,Rain,Light Rain,330,2013-01-01 22:55:00
5:50 PM,51.8,50.0,94,30.09,10.0,NNW,8.1,-,N/A,Rain,Light Rain,330,2013-01-01 23:50:00
6:50 PM,51.8,48.2,88,30.12,10.0,NNW,10.4,16.1,N/A,,Overcast,340,2013-01-02 00:50:00
7:50 PM,51.8,48.2,88,30.13,10.0,North,10.4,-,N/A,,Overcast,350,2013-01-02 01:50:00
8:50 PM,51.8,46.4,82,30.13,10.0,North,9.2,-,N/A,,Overcast,360,2013-01-02 02:50:00
10:15 PM,49.3,45.0,85,30.15,10.0,North,9.2,-,N/A,,Overcast,10,2013-01-02 04:15:00
10:55 PM,48.6,43.7,83,30.17,10.0,North,9.2,-,N/A,,Overcast,360,2013-01-02 04:55:00
11:15 PM,48.4,43.5,83,30.18,10.0,North,9.2,-,N/A,,Overcast,360,2013-01-02 05:15:00
11:55 PM,48.2,43.3,83,30.18,10.0,North,9.2,16.1,N/A,,Overcast,360,2013-01-02 05:55:00